COSMOS 1275 DEB, 13816

Orbit data source: Space-Track

COSMOS 1275 DEB, 13816 is space debris in LEO originally from a launch on Thu, 04 Jun 1981 UTC launched from the Plesetsk Missile And Space Complex (PKMTR). Debris objects in space refer to the collection of defunct objects orbiting the Earth. Examples of debris include non-operational satellites, rocket bodies, and fragments generated from explosions, collisions, or faulty payload assembly.

Loading next visibility...
Identifier
13816, 1981-053HL
Orbit
LEO
Country
Flag of CISCIS
Related business
Manufacturer
Unknown
Mission
Spacecraft
Bus & Motor
Unknown
Mass
Unknown
Launch date (UTC)
1981-06-04 (45 years ago)
Launch vehicle
Unknown
Launch site
Plesetsk Missile And Space Complex (PKMTR)
Object type
Payload
Rocket body
Debris
Shape & HBR
Unknown shape, 0.1 m
Radar Cross Section
Small (<0.1 m²)

Expand to show TLE details & history
Last TLE update: 14 hours ago

TLE from 14 hours ago
0 COSMOS 1275 DEB
1 13816U 81053HL  26119.47709799  .00000833  00000-0  62135-3 0  9991
2 13816  82.9845 108.6393 0152833 324.3953 159.3297 13.88536001153525
Epoch: 2026-04-29T11:27Z
TLE epoch observation values (Epoch: 2026-04-29T11:27:01.266Z)
Latitude
55.14045°
Longitude
-110.67632°
Altitude
1,047.69 km
Speed
7.28 km/s
True Right ascension
18h 34m 03s
True Declination
54° 59' 07"
Sunlit
Object was in daylight at epoch
Visualization orbit readout
Latitude
Unknown
Longitude
Unknown
Altitude
Unknown
Speed
Unknown
Apparent Right ascension
Unknown
Apparent Declination
Unknown
Sunlit
N/A
Visualization observer readout
Local Sidereal Time
08:46:15
Azimuth
Unknown
Elevation
Unknown
Doppler factor
Unknown
Orbital elements
Apogee altitude
1,042.599 km
Perigee altitude
819.187 km
Semi-major axis
7,309.03 km
Eccentricity
0.01528
Inclination
82.9845°
RAAN
108.6393°
Arg. of periapsis
324.3953°
True anomaly
159.93703°
Mean anomaly
159.3297°
Eccentric anomaly
159.63444°
Mean motion
3.47339 °/min
Orbital period
103.65 mins
BSTAR
0.00062135
Loading maneuver chart data...
Computing Atmospheric mass density...
Loading historical data...
Loading historical data...
Loading historical data...
Loading historical data...
Loading historical data...
Loading historical data...
Loading historical data...

Documentation

Showing up to 5 results
|